Bloomington, IN

9:12 PM EST on December 15, 2019 (GMT -0500)
Monroe County

Weather History for KBMG - November, 2019

Change the Weather History Date:

Wednesday, November 20, 2019

  Actual Average Record
Temperature  
Mean Temperature 42 °F 42 °F  
Max Temperature 44 °F 51 °F 66 °F (2003)
Min Temperature 39 °F 32 °F 18 °F (2014)
Degree Days  
Heating Degree Days 24 23  
Month to date heating degree days 572 379  
Since 1 July heating degree days 871 798  
Cooling Degree Days 0 0  
Month to date cooling degree days 0 0  
Year to date cooling degree days 1239 926  
Moisture  
Dew Point 38 °F    
Average Humidity 88    
Maximum Humidity 100    
Minimum Humidity 76    
Precipitation  
Precipitation 0.00 in 0.12 in 0.20 in (1998)
Month to date precipitation 0.67 2.67  
Year to date precipitation 42.86 42.74  
Sea Level Pressure  
Sea Level Pressure 30.18 in    
Wind  
Wind Speed 4 mph ()    
Max Wind Speed 9 mph    
Max Gust Speed 17 mph    
Visibility 5.4 miles    
Events      
T = Trace of Precipitation, MM = Missing Value Source: Averaged Metar Reports

Daily Weather History Graph

Daily Weather History Graph

Search for Another Location

Airport or City:

Astronomy

Nov. 20, 2019 Rise Set
Actual Time 7:35 AM EST 5:28 PM EST
Civil Twilight 7:06 AM EST 5:57 PM EST
Nautical Twilight 6:33 AM EST 6:30 PM EST
Astronomical Twilight 6:01 AM EST 7:02 PM EST
Moon 12:24 AM EST (11/20) 2:20 PM EST (11/20)
Length of Visible Light 10h 51m
Length of Day
9h 53m
Last Quarter, 41% of the Moon is Illuminated
Nov 20
Last Quarter
Nov 26
New
Dec 4
First Quarter
Dec 12
Full
Dec 18
Last Quarter

Hourly Weather History & Observations

Time (EST) Temp. Windchill Dew Point Humidity Pressure Visibility Wind Dir Wind Speed Gust Speed Precip Events Conditions
12:53 AM 39.9 °F 35.8 °F 37.0 °F 89% 30.03 in 3.0 mi West 5.8 mph - N/A   Overcast
1:38 AM 39.9 °F 35.8 °F 37.0 °F 89% 30.03 in 2.5 mi WNW 5.8 mph - N/A   Overcast
1:53 AM 39.9 °F 34.5 °F 37.0 °F 89% 30.05 in 2.5 mi WNW 8.1 mph - N/A   Overcast
2:10 AM 39.9 °F 36.7 °F 37.0 °F 89% 30.05 in 3.0 mi West 4.6 mph - N/A   Overcast
3:53 AM 39.9 °F 37.8 °F 37.9 °F 93% 30.11 in 5.0 mi WNW 3.5 mph - N/A   Overcast
4:53 AM 39.9 °F - 37.9 °F 93% 30.13 in 4.0 mi Calm Calm - N/A   Overcast
5:53 AM 39.9 °F 37.8 °F 37.9 °F 93% 30.14 in 3.0 mi West 3.5 mph - N/A   Overcast
6:03 AM 39.9 °F 37.8 °F 37.9 °F 93% 30.14 in 2.5 mi West 3.5 mph - N/A   Overcast
6:53 AM 39.9 °F - 37.9 °F 93% 30.16 in 2.5 mi Calm Calm - N/A   Overcast
7:24 AM 39.9 °F 37.8 °F 37.9 °F 93% 30.17 in 1.8 mi WSW 3.5 mph - N/A   Overcast
7:53 AM 39.9 °F - 39.0 °F 97% 30.19 in 1.2 mi Calm Calm - N/A   Overcast
8:22 AM 41.0 °F - 39.0 °F 93% 30.19 in 1.2 mi Calm Calm - N/A   Overcast
8:53 AM 41.0 °F - 39.0 °F 93% 30.21 in 1.8 mi Calm Calm - N/A   Overcast
9:03 AM 41.0 °F - 39.0 °F 93% 30.20 in 2.0 mi Calm Calm - N/A   Overcast
9:34 AM 41.0 °F - 39.0 °F 93% 30.21 in 3.0 mi Calm Calm - N/A   Overcast
9:53 AM 42.1 °F - 39.0 °F 89% 30.23 in 2.5 mi Calm Calm - N/A   Overcast
10:01 AM 42.1 °F - 39.0 °F 89% 30.22 in 3.0 mi Calm Calm - N/A   Overcast
10:26 AM 42.1 °F - 39.0 °F 89% 30.23 in 4.0 mi Calm Calm - N/A   Overcast
10:53 AM 43.0 °F 40.3 °F 39.0 °F 86% 30.24 in 5.0 mi ESE 4.6 mph - N/A   Overcast
11:53 AM 43.0 °F 40.3 °F 39.0 °F 86% 30.25 in 7.0 mi East 4.6 mph - N/A   Overcast
12:53 PM 44.1 °F 41.5 °F 37.9 °F 79% 30.23 in 10.0 mi Variable 4.6 mph - N/A   Overcast
1:53 PM 44.1 °F 39.5 °F 39.0 °F 82% 30.22 in 10.0 mi SSE 8.1 mph - N/A   Overcast
2:53 PM 43.0 °F 40.3 °F 37.9 °F 82% 30.21 in 10.0 mi South 4.6 mph - N/A   Overcast
3:53 PM 44.1 °F 40.8 °F 37.9 °F 79% 30.22 in 10.0 mi SE 5.8 mph - N/A   Overcast
4:53 PM 43.0 °F 38.8 °F 37.9 °F 82% 30.22 in 10.0 mi SE 6.9 mph - N/A   Overcast
5:53 PM 43.0 °F 40.3 °F 37.9 °F 82% 30.21 in 10.0 mi SE 4.6 mph - N/A   Overcast
6:53 PM 43.0 °F 38.8 °F 37.9 °F 82% 30.22 in 10.0 mi SSE 6.9 mph - N/A   Overcast
7:49 PM 42.8 °F 39.3 °F 37.4 °F 81% 30.22 in 10.0 mi SSE 5.8 mph - N/A   Scattered Clouds
7:53 PM 42.1 °F 38.4 °F 37.0 °F 82% 30.23 in 10.0 mi SSE 5.8 mph - N/A   Partly Cloudy
8:53 PM 41.0 °F 37.1 °F 37.0 °F 86% 30.23 in 9.0 mi SSE 5.8 mph - N/A   Clear
9:53 PM 41.0 °F 37.1 °F 37.0 °F 86% 30.22 in 7.0 mi SSE 5.8 mph - N/A   Clear
10:53 PM 41.0 °F 35.8 °F 37.0 °F 86% 30.19 in 6.0 mi SE 8.1 mph - N/A   Clear
11:53 PM 41.0 °F 35.8 °F 37.0 °F 86% 30.17 in 7.0 mi SSE 8.1 mph - N/A   Clear